Location: Gälforsberget
(66.6500°N, 22.4167°E)
Time: 20:53:55
(UTC+00:00)

Cosmos 1727 Rocket - Pass Details

Date: 11 April 2026
Orbit: 961 x 996 km, 82.9° (Epoch: 11 May)

Event Time Altitude Azimuth Distance (km) Brightness Sun altitude
Rises 19:27:35 0° 342° (NNW) 3,729 8.3 -7.8°
Reaches altitude 10° 19:30:07 10° 342° (NNW) 2,778 7.5 -8.0°
Maximum altitude 19:36:31 85° 256° (WSW) 1,011 4.2 -8.4°
Drops below altitude 10° 19:42:53 10° 169° (SSE) 2,759 5.9 -8.9°
Enters shadow 19:43:50 - 169° (SSE) 3,114 6.1 -8.9°
